This is the latest recevied weather packets stored in our database for station/object HA9OZD-21. If no packets are shown the sender has not sent any weather packets the latest 10 day(s).
| Time | Temp. | Humidity | Pressure | Rain* | Wind** | Luminosity | Snow |
|---|---|---|---|---|---|---|---|
| 1777878094 | 15° C | 51% | 1018.2 hPa | - | - | - | - |
| 1777874494 | 13.89° C | 45% | 1017.9 hPa | - | - | - | - |
| 1777870894 | 13.33° C | 45% | 1017.7 hPa | - | - | - | - |
| 1777867294 | 12.22° C | 50% | 1017.3 hPa | - | - | - | - |
| 1777863694 | 12.22° C | 50% | 1017.3 hPa | - | - | - | - |
| 1777860094 | 12.22° C | 48% | 1017.2 hPa | - | - | - | - |
| 1777856493 | 12.78° C | 44% | 1017.5 hPa | - | - | - | - |
| 1777852893 | 13.33° C | 41% | 1017.5 hPa | - | - | - | - |
| 1777849297 | 12.78° C | 42% | 1017.6 hPa | - | - | - | - |
| 1777845697 | 13.33° C | 40% | 1017.3 hPa | - | - | - | - |
| 1777842097 | 13.33° C | 43% | 1017.3 hPa | - | - | - | - |
| 1777838497 | 13.33° C | 43% | 1017.4 hPa | - | - | - | - |
| 1777834897 | 13.33° C | 44% | 1017.4 hPa | - | - | - | - |
| 1777831297 | 13.89° C | 43% | 1017.1 hPa | - | - | - | - |
| 1777827697 | 15° C | 41% | 1017.3 hPa | - | - | - | - |
| 1777824096 | 16.11° C | 40% | 1017.5 hPa | - | - | - | - |
| 1777820496 | 16.67° C | 40% | 1018.1 hPa | - | - | - | - |
| 1777816896 | 17.22° C | 42% | 1018.6 hPa | - | - | - | - |
| 1777813296 | 16.67° C | 41% | 1019.4 hPa | - | - | - | - |
| 1777809695 | 16.67° C | 40% | 1019.9 hPa | - | - | - | - |
| 1777806095 | 17.22° C | 43% | 1020.3 hPa | - | - | - | - |
| 1777802495 | 16.11° C | 49% | 1020.9 hPa | - | - | - | - |
| 1777798895 | 15° C | 50% | 1021.2 hPa | - | - | - | - |
| 1777795295 | 13.33° C | 53% | 1021.5 hPa | - | - | - | - |
| 1777791695 | 12.78° C | 61% | 1021.4 hPa | - | - | - | - |
* Rain since midnight (hover to see other rain measurements)
** Current wind speed in m/s (hover to see current wind gust speed)